Regional Weather Roundup
Issued by NWS Goodland, KS

Home | Current Version | Previous Version | Graphics & Text | Print | Product List | Glossary On
Versions: 1 2 3 4 5 6 7 8 9 10 11 12 13 14 15 16 17 18 19 20 21 22 23 24 25 26 27 28 29 30 31 32 33 34 35 36 37 38 39 40 41 42 43 44 45 46 47 48 49 50
000
ASUS43 KGLD 230259
RWRGLD

GOODLAND FORECAST AREA HOURLY WEATHER ROUNDUP
NATIONAL WEATHER SERVICE GOODLAND KS
800 PM MST SUN JAN 22 2017

...OFFICIAL OBSERVATIONS...

CITY           SKY/WX    TMP DP  RH WIND       PRES   REMARKS
GOODLAND KS    CLEAR     30  23  75 W10       29.93R
HILL CITY KS   CLEAR     32  27  81 W6        29.92R
IMPERIAL NEB   CLEAR     31  25  78 W5        29.91S
MCCOOK NEB     CLEAR     31  25  78 W8        29.90S
AKRON CO       CLEAR     30  15  53 S5        29.91S
BURLINGTON CO  CLEAR     29  23  78 N6        29.92F
LIMON CO       CLOUDY    26  19  74 SE3       29.89F
$$

...UNOFFICIAL OBSERVATIONS...

CITY           SKY/WX    TMP DP  RH WIND       PRES   REMARKS
LENORA KS        N/A     37  32  82 W6          N/A
NORTON KS      CLEAR     34  25  69 W6        29.90R
SHARON SPRINGS   N/A     30  25  81 CALM        N/A
TRENTON NEB      N/A     32  32 100 NW5         N/A
KIT CARSON CO    N/A     27  20  75 CALM        N/A
YUMA CO        FAIR      27  19  74 SW9       29.92R
$$




USA.gov is the U.S. government's official web portal to all federal, state and local government web resources and services.